Regional Weather Roundup
Issued by NWS

Home | Current Version | Previous Version | Text Only | Print | Product List | Glossary Off
Versions: 1 2 3 4 5 6 7 8 9 10 11 12 13 14 15 16 17 18 19 20 21 22 23 24 25 26 27 28 29 30 31 32 33 34 35 36 37 38 39 40 41 42 43 44 45 46 47 48 49 50

000
ASUS43 KBIS 270420
RWRND

NORTH DAKOTA REGIONAL WEATHER ROUNDUP
NATIONAL WEATHER SERVICE BISMARCK ND
1100 PM CDT SUN APR 26 2015

NOTE: "FAIR" INDICATES FEW OR NO CLOUDS BELOW 12,000 FEET WITH NO
SIGNIFICANT WEATHER AND/OR OBSTRUCTIONS TO VISIBILITY.


NDZ001>003-009>011-017-270500-
NORTHWEST NORTH DAKOTA

CITY           SKY/WX    TMP DP  RH WIND       PRES   REMARKS
WILLISTON      CLOUDY    48  33  56 N14       30.19R
MINOT          CLOUDY    47  44  90 W6        30.16R
MINOT AFB      CLOUDY    46  46 100 W6        30.15R
$$

NDZ018>021-031>035-040>046-270500-
SOUTHWEST NORTH DAKOTA

CITY           SKY/WX    TMP DP  RH WIND       PRES   REMARKS
BISMARCK       CLOUDY    50  47  89 N3        30.16R
DICKINSON      CLOUDY    43  41  93 N3        30.15R
GARRISON         N/A     46  44  93 NW5       30.16R
HETTINGER ARPT CLOUDY    44  42  93 N6        30.16R FOG
$$

NDZ004>008-012>016-024-026-027-054-270500-
NORTHEAST NORTH DAKOTA

CITY           SKY/WX    TMP DP  RH WIND       PRES   REMARKS
GRAND FORKS    PTCLDY    50  30  46 E5        30.13R
GRND FRKS AFB  PTCLDY    41  28  58 SW3       30.13R
DEVILS LAKE    PTCLDY    46  43  87 CALM      30.15S
$$

NDZ022-023-025-028>030-036>039-047>053-270500-
SOUTHEAST NORTH DAKOTA

CITY           SKY/WX    TMP DP  RH WIND       PRES   REMARKS
FARGO          PTCLDY    50  29  44 CALM      30.14R
JAMESTOWN      CLEAR     46  30  53 SE7       30.13R
$$




USA.gov is the U.S. government's official web portal to all federal, state and local government web resources and services.